Time,TemperatureF,DewpointF,PressureIn,WindDirection,WindDirectionDegrees,WindSpeedMPH,WindSpeedGustMPH,Humidity,HourlyPrecipIn,Conditions,Clouds,dailyrainin,SoftwareType,DateUTC
2013-06-18 00:09:00,71.2,56.0,29.53,ESE,105,2.0,4.0,59,0.00,,,0.00,weatherlink.com 1.10,2013-06-18 08:09:00,
2013-06-18 00:24:00,70.2,56.0,29.53,SE,125,1.0,3.0,61,0.00,,,0.00,weatherlink.com 1.10,2013-06-18 08:24:00,
2013-06-18 00:39:00,70.1,56.0,29.53,SSE,155,2.0,4.0,62,0.00,,,0.00,weatherlink.com 1.10,2013-06-18 08:39:00,
2013-06-18 00:54:00,70.4,57.0,29.53,SE,132,0.0,3.0,62,0.00,,,0.00,weatherlink.com 1.10,2013-06-18 08:54:00,
2013-06-18 01:09:00,67.6,56.0,29.54,West,269,3.0,6.0,67,0.00,,,0.00,weatherlink.com 1.10,2013-06-18 09:09:00,
2013-06-18 01:24:00,66.2,56.0,29.54,SW,235,2.0,3.0,70,0.00,,,0.00,weatherlink.com 1.10,2013-06-18 09:24:00,
2013-06-18 01:39:00,64.9,56.0,29.53,WSW,241,2.0,4.0,73,0.00,,,0.00,weatherlink.com 1.10,2013-06-18 09:39:00,
2013-06-18 01:54:00,64.3,56.0,29.54,WSW,241,0.0,2.0,74,0.00,,,0.00,weatherlink.com 1.10,2013-06-18 09:54:00,
2013-06-18 02:09:00,64.2,55.0,29.53,WSW,241,0.0,2.0,73,0.00,,,0.00,weatherlink.com 1.10,2013-06-18 10:09:00,
2013-06-18 02:24:00,64.0,55.0,29.53,WSW,241,0.0,3.0,73,0.00,,,0.00,weatherlink.com 1.10,2013-06-18 10:24:00,
2013-06-18 02:39:00,63.7,56.0,29.53,ESE,110,1.0,3.0,75,0.00,,,0.00,weatherlink.com 1.10,2013-06-18 10:39:00,
2013-06-18 02:54:00,62.7,55.0,29.53,ENE,60,0.0,4.0,77,0.00,,,0.00,weatherlink.com 1.10,2013-06-18 10:54:00,
2013-06-18 03:09:00,62.2,56.0,29.54,ENE,64,1.0,2.0,79,0.00,,,0.00,weatherlink.com 1.10,2013-06-18 11:09:00,
2013-06-18 03:24:00,61.5,55.0,29.53,ESE,123,1.0,3.0,80,0.00,,,0.00,weatherlink.com 1.10,2013-06-18 11:24:00,
2013-06-18 03:39:00,61.3,54.0,29.53,SE,139,2.0,2.0,78,0.00,,,0.00,weatherlink.com 1.10,2013-06-18 11:39:00,
2013-06-18 03:54:00,61.1,54.0,29.53,ESE,104,1.0,2.0,77,0.00,,,0.00,weatherlink.com 1.10,2013-06-18 11:54:00,
2013-06-18 04:09:00,60.6,54.0,29.53,SE,146,2.0,3.0,78,0.00,,,0.00,weatherlink.com 1.10,2013-06-18 12:09:00,
2013-06-18 04:24:00,61.8,53.0,29.53,SE,131,2.0,3.0,73,0.00,,,0.00,weatherlink.com 1.10,2013-06-18 12:24:00,
2013-06-18 04:39:00,62.1,53.0,29.52,SE,124,0.0,2.0,72,0.00,,,0.00,weatherlink.com 1.10,2013-06-18 12:39:00,
2013-06-18 04:54:00,59.9,53.0,29.52,East,87,0.0,2.0,77,0.00,,,0.00,weatherlink.com 1.10,2013-06-18 12:54:00,
2013-06-18 05:09:00,59.4,53.0,29.52,NNW,337,1.0,2.0,79,0.00,,,0.00,weatherlink.com 1.10,2013-06-18 13:09:00,
2013-06-18 05:25:00,59.3,54.0,29.52,WSW,250,0.0,3.0,82,0.00,,,0.00,weatherlink.com 1.10,2013-06-18 13:25:00,
2013-06-18 05:40:00,59.2,54.0,29.52,WNW,291,0.0,3.0,82,0.00,,,0.00,weatherlink.com 1.10,2013-06-18 13:40:00,
2013-06-18 05:55:00,59.6,53.0,29.52,WSW,245,0.0,2.0,80,0.00,,,0.00,weatherlink.com 1.10,2013-06-18 13:55:00,
2013-06-18 06:10:00,59.1,53.0,29.52,WSW,238,0.0,2.0,81,0.00,,,0.00,weatherlink.com 1.10,2013-06-18 14:10:00,
2013-06-18 06:25:00,58.9,52.0,29.52,WSW,250,4.0,5.0,79,0.00,,,0.00,weatherlink.com 1.10,2013-06-18 14:25:00,
2013-06-18 06:40:00,59.2,52.0,29.52,SW,229,1.0,4.0,78,0.00,,,0.00,weatherlink.com 1.10,2013-06-18 14:40:00,
2013-06-18 06:55:00,59.9,53.0,29.52,WSW,250,2.0,3.0,78,0.00,,,0.00,weatherlink.com 1.10,2013-06-18 14:55:00,
2013-06-18 07:10:00,61.3,54.0,29.52,NNW,344,0.0,1.0,77,0.00,,,0.00,weatherlink.com 1.10,2013-06-18 15:10:00,
2013-06-18 07:25:00,61.8,54.0,29.51,NNW,337,0.0,1.0,75,0.00,,,0.00,weatherlink.com 1.10,2013-06-18 15:25:00,
2013-06-18 07:40:00,63.5,54.0,29.51,WNW,296,0.0,1.0,71,0.00,,,0.00,weatherlink.com 1.10,2013-06-18 15:40:00,
2013-06-18 07:55:00,65.6,55.0,29.51,WSW,257,0.0,2.0,68,0.00,,,0.00,weatherlink.com 1.10,2013-06-18 15:55:00,
2013-06-18 08:10:00,66.7,53.0,29.50,NW,311,0.0,4.0,61,0.00,,,0.00,weatherlink.com 1.10,2013-06-18 16:10:00,
2013-06-18 08:25:00,67.9,53.0,29.49,WSW,245,1.0,3.0,60,0.00,,,0.00,weatherlink.com 1.10,2013-06-18 16:25:00,
2013-06-18 08:40:00,68.6,53.0,29.49,WNW,297,3.0,5.0,58,0.00,,,0.00,weatherlink.com 1.10,2013-06-18 16:40:00,
2013-06-18 08:55:00,70.1,53.0,29.49,NW,312,0.0,4.0,55,0.00,,,0.00,weatherlink.com 1.10,2013-06-18 16:55:00,
2013-06-18 09:10:00,71.0,53.0,29.49,WNW,302,1.0,4.0,53,0.00,,,0.00,weatherlink.com 1.10,2013-06-18 17:10:00,
2013-06-18 09:25:00,72.0,53.0,29.48,NW,310,3.0,4.0,51,0.00,,,0.00,weatherlink.com 1.10,2013-06-18 17:25:00,
2013-06-18 09:40:00,73.2,52.0,29.48,WNW,290,1.0,4.0,48,0.00,,,0.00,weatherlink.com 1.10,2013-06-18 17:40:00,
2013-06-18 09:55:00,74.1,53.0,29.48,NNW,333,0.0,5.0,48,0.00,,,0.00,weatherlink.com 1.10,2013-06-18 17:55:00,
2013-06-18 10:10:00,73.5,54.0,29.48,NNE,23,1.0,7.0,50,0.00,,,0.00,weatherlink.com 1.10,2013-06-18 18:10:00,
2013-06-18 10:25:00,74.3,53.0,29.48,WNW,295,2.0,4.0,48,0.00,,,0.00,weatherlink.com 1.10,2013-06-18 18:25:00,
2013-06-18 10:40:00,74.9,53.0,29.47,WNW,282,1.0,5.0,46,0.00,,,0.00,weatherlink.com 1.10,2013-06-18 18:40:00,
2013-06-18 10:55:00,75.8,52.0,29.47,West,264,0.0,8.0,44,0.00,,,0.00,weatherlink.com 1.10,2013-06-18 18:55:00,
2013-06-18 11:10:00,76.9,53.0,29.46,WSW,254,2.0,5.0,43,0.00,,,0.00,weatherlink.com 1.10,2013-06-18 19:10:00,
2013-06-18 11:25:00,77.5,53.0,29.46,SW,233,4.0,6.0,42,0.00,,,0.00,weatherlink.com 1.10,2013-06-18 19:25:00,
2013-06-18 11:40:00,77.5,53.0,29.46,WSW,256,2.0,6.0,42,0.00,,,0.00,weatherlink.com 1.10,2013-06-18 19:40:00,
2013-06-18 11:55:00,78.9,50.0,29.46,NNW,343,2.0,10.0,37,0.00,,,0.00,weatherlink.com 1.10,2013-06-18 19:55:00,
2013-06-18 12:11:00,79.1,49.0,29.45,WSW,250,1.0,7.0,35,0.00,,,0.00,weatherlink.com 1.10,2013-06-18 20:11:00,
2013-06-18 12:26:00,79.4,52.0,29.45,WNW,295,2.0,7.0,38,0.00,,,0.00,weatherlink.com 1.10,2013-06-18 20:26:00,
2013-06-18 12:41:00,80.8,53.0,29.45,WNW,302,3.0,4.0,38,0.00,,,0.00,weatherlink.com 1.10,2013-06-18 20:41:00,
2013-06-18 12:56:00,80.4,52.0,29.45,West,268,2.0,6.0,38,0.00,,,0.00,weatherlink.com 1.10,2013-06-18 20:56:00,
2013-06-18 13:11:00,81.4,51.0,29.45,West,272,3.0,8.0,35,0.00,,,0.00,weatherlink.com 1.10,2013-06-18 21:11:00,
2013-06-18 13:26:00,82.1,50.0,29.45,NE,53,0.0,9.0,33,0.00,,,0.00,weatherlink.com 1.10,2013-06-18 21:26:00,
2013-06-18 13:41:00,81.1,50.0,29.45,North,7,4.0,9.0,34,0.00,,,0.00,weatherlink.com 1.10,2013-06-18 21:41:00,
2013-06-18 13:56:00,81.8,49.0,29.45,NNE,32,4.0,9.0,32,0.00,,,0.00,weatherlink.com 1.10,2013-06-18 21:56:00,
2013-06-18 14:11:00,82.0,48.0,29.45,SW,214,5.0,7.0,30,0.00,,,0.00,weatherlink.com 1.10,2013-06-18 22:11:00,
2013-06-18 14:26:00,82.7,41.0,29.45,WSW,254,5.0,14.0,23,0.00,,,0.00,weatherlink.com 1.10,2013-06-18 22:26:00,
2013-06-18 14:41:00,82.8,41.0,29.45,South,177,1.0,11.0,23,0.00,,,0.00,weatherlink.com 1.10,2013-06-18 22:41:00,
2013-06-18 14:56:00,83.1,42.0,29.44,WSW,252,9.0,13.0,23,0.00,,,0.00,weatherlink.com 1.10,2013-06-18 22:56:00,
2013-06-18 15:11:00,82.8,41.0,29.44,West,269,4.0,14.0,23,0.00,,,0.00,weatherlink.com 1.10,2013-06-18 23:11:00,
2013-06-18 15:26:00,83.2,41.0,29.44,South,179,5.0,12.0,22,0.00,,,0.00,weatherlink.com 1.10,2013-06-18 23:26:00,
2013-06-18 15:41:00,82.2,41.0,29.44,SW,225,11.0,17.0,23,0.00,,,0.00,weatherlink.com 1.10,2013-06-18 23:41:00,
2013-06-18 15:56:00,81.5,39.0,29.45,SSE,165,7.0,14.0,22,0.00,,,0.00,weatherlink.com 1.10,2013-06-18 23:56:00,
2013-06-18 16:11:00,82.2,39.0,29.44,SSW,207,6.0,13.0,21,0.00,,,0.00,weatherlink.com 1.10,2013-06-19 00:11:00,
2013-06-18 16:26:00,82.5,40.0,29.44,SSW,198,10.0,14.0,22,0.00,,,0.00,weatherlink.com 1.10,2013-06-19 00:26:00,
2013-06-18 16:41:00,83.2,41.0,29.44,West,265,4.0,11.0,22,0.00,,,0.00,weatherlink.com 1.10,2013-06-19 00:41:00,
2013-06-18 16:56:00,83.2,41.0,29.44,SSW,198,4.0,12.0,22,0.00,,,0.00,weatherlink.com 1.10,2013-06-19 00:56:00,
2013-06-18 17:11:00,83.6,42.0,29.44,NW,310,6.0,14.0,23,0.00,,,0.00,weatherlink.com 1.10,2013-06-19 01:11:00,
2013-06-18 17:26:00,83.1,40.0,29.45,SW,233,9.0,14.0,22,0.00,,,0.00,weatherlink.com 1.10,2013-06-19 01:26:00,
2013-06-18 17:41:00,82.3,42.0,29.45,WSW,253,7.0,13.0,24,0.00,,,0.00,weatherlink.com 1.10,2013-06-19 01:41:00,
2013-06-18 17:56:00,82.1,41.0,29.45,SW,223,3.0,11.0,23,0.00,,,0.00,weatherlink.com 1.10,2013-06-19 01:56:00,
2013-06-18 18:11:00,82.2,41.0,29.44,West,274,7.0,13.0,23,0.00,,,0.00,weatherlink.com 1.10,2013-06-19 02:11:00,
2013-06-18 18:26:00,83.0,43.0,29.45,NW,324,7.0,11.0,24,0.00,,,0.00,weatherlink.com 1.10,2013-06-19 02:26:00,
2013-06-18 18:41:00,83.6,42.0,29.45,WNW,283,11.0,12.0,23,0.00,,,0.00,weatherlink.com 1.10,2013-06-19 02:41:00,
2013-06-18 18:56:00,83.2,43.0,29.45,NW,314,5.0,10.0,24,0.00,,,0.00,weatherlink.com 1.10,2013-06-19 02:56:00,
2013-06-18 19:11:00,82.1,43.0,29.45,West,267,7.0,11.0,25,0.00,,,0.00,weatherlink.com 1.10,2013-06-19 03:11:00,
2013-06-18 19:26:00,81.3,42.0,29.45,West,266,8.0,12.0,25,0.00,,,0.00,weatherlink.com 1.10,2013-06-19 03:26:00,
2013-06-18 19:41:00,80.5,43.0,29.45,West,267,6.0,14.0,26,0.00,,,0.00,weatherlink.com 1.10,2013-06-19 03:41:00,
2013-06-18 19:56:00,79.8,43.0,29.46,SW,235,6.0,14.0,27,0.00,,,0.00,weatherlink.com 1.10,2013-06-19 03:56:00,
2013-06-18 20:11:00,78.2,43.0,29.46,WSW,243,3.0,13.0,29,0.00,,,0.00,weatherlink.com 1.10,2013-06-19 04:11:00,
2013-06-18 20:26:00,77.1,42.0,29.46,SSW,198,10.0,16.0,28,0.00,,,0.00,weatherlink.com 1.10,2013-06-19 04:26:00,
2013-06-18 20:41:00,76.0,43.0,29.47,WSW,243,3.0,13.0,31,0.00,,,0.00,weatherlink.com 1.10,2013-06-19 04:41:00,
2013-06-18 20:56:00,74.7,44.0,29.48,SSW,194,6.0,12.0,33,0.00,,,0.00,weatherlink.com 1.10,2013-06-19 04:56:00,
2013-06-18 21:11:00,73.7,44.0,29.48,SW,216,4.0,15.0,35,0.00,,,0.00,weatherlink.com 1.10,2013-06-19 05:11:00,
2013-06-18 21:26:00,72.5,45.0,29.49,WSW,245,8.0,15.0,37,0.00,,,0.00,weatherlink.com 1.10,2013-06-19 05:26:00,
2013-06-18 21:41:00,71.9,45.0,29.50,WSW,249,9.0,12.0,38,0.00,,,0.00,weatherlink.com 1.10,2013-06-19 05:41:00,
2013-06-18 21:56:00,71.2,45.0,29.50,SW,218,4.0,12.0,39,0.00,,,0.00,weatherlink.com 1.10,2013-06-19 05:56:00,
2013-06-18 22:11:00,70.6,44.0,29.51,South,188,3.0,14.0,39,0.00,,,0.00,weatherlink.com 1.10,2013-06-19 06:11:00,
2013-06-18 22:26:00,69.6,45.0,29.52,West,275,4.0,13.0,41,0.00,,,0.00,weatherlink.com 1.10,2013-06-19 06:26:00,
2013-06-18 22:41:00,68.8,45.0,29.53,WSW,245,5.0,13.0,42,0.00,,,0.00,weatherlink.com 1.10,2013-06-19 06:41:00,
2013-06-18 22:56:00,67.9,44.0,29.54,WSW,246,7.0,12.0,43,0.00,,,0.00,weatherlink.com 1.10,2013-06-19 06:56:00,
2013-06-18 23:11:00,67.1,44.0,29.54,WSW,250,5.0,9.0,44,0.00,,,0.00,weatherlink.com 1.10,2013-06-19 07:11:00,
2013-06-18 23:26:00,66.1,44.0,29.54,WSW,258,8.0,15.0,45,0.00,,,0.00,weatherlink.com 1.10,2013-06-19 07:26:00,
2013-06-18 23:41:00,65.4,45.0,29.55,SW,224,0.0,8.0,48,0.00,,,0.00,weatherlink.com 1.10,2013-06-19 07:41:00,
2013-06-18 23:56:00,64.4,46.0,29.57,South,170,1.0,5.0,51,0.00,,,0.00,weatherlink.com 1.10,2013-06-19 07:56:00,